Location: Unspecified
(0.0000°N, 0.0000°E)
Time: 07:52:19
(UTC+00:00)

ATLAS 5 CENTAUR DEB - Visible Passes

Search period start: 11 April 2026 00:00
Search period end: 21 April 2026 00:00
Orbit: 6988 x 35003 km, 21.1° (Epoch: 7 April)

Date Brightness Start Highest point End Pass type
(mag) Time Alt. Az. Time Alt. Az. Time Alt. Az.
11 Apr ? 16:58:04 10° WSW 19:06:24 74° WNW 04:42:02 10° ESE visible
12 Apr ? 18:15:16 10° WSW 20:32:32 55° WNW 05:54:35 10° ESE daylight
13 Apr ? 19:39:19 10° W 21:48:03 37° WNW 07:07:33 10° ESE visible
14 Apr ? 21:23:52 10° W 22:58:52 19° WNW 08:22:37 10° ESE visible
17 Apr ? 16:12:07 10° ENE 18:32:09 15° ENE 20:04:16 10° ENE visible
18 Apr ? 10:54:14 10° WSW 19:35:46 31° ENE 22:09:58 10° ENE visible
19 Apr ? 12:09:13 10° WSW 20:39:58 47° NE 23:41:48 10° E visible
